Location: Brompton
(51.4000°N, 0.5333°E)
Time: 09:17:56
(UTC+00:00)

USA 305 - Pass Details

Date: 11 May 2021
Orbit: 567 x 573 km, 54.0° (Epoch: 07 May)

Event Time Altitude Azimuth Distance (km) Brightness Sun altitude
Rises 20:20:10 0° 289° (WNW) 2,773 8.0 -6.3°
Reaches altitude 10° 20:22:25 10° 290° (WNW) 1,875 6.9 -6.6°
Maximum altitude 20:26:42 87° 17° (NNE) 577 2.9 -7.1°
Drops below altitude 10° 20:30:58 10° 110° (ESE) 1,873 5.0 -7.6°
Enters shadow 20:31:23 - 110° (ESE) 2,035 5.1 -7.6°
